Location: Newark
(7.0858°N, 171.3717°E)
Time: 06:38:04
(UTC+00:00)

Courier 1B - Pass Details

Date: 04 December 2020
Orbit: 962 x 1209 km, 28.3° (Epoch: 19 January)

Event Time Altitude Azimuth Distance (km) Brightness Sun altitude
Rises 09:16:12 0° 300° (WNW) 3,633 10.9 -42.1°
Enters shadow 09:18:34 - 313° (NW) 3,083 10.3 -42.7°
Reaches altitude 10° 09:20:54 10° 331° (NNW) 2,708 - -43.2°
Maximum altitude 09:23:15 12° 352° (N) 2,582 - -43.7°
Drops below altitude 10° 09:25:39 10° 13° (NNE) 2,747 - -44.3°
Sets 09:30:31 0° 44° (NE) 3,752 - -45.4°
